[[{"header":{"parameterUnit":"m.s-1","parameterCategory":1,"la1":30.2991,"la2":30.254,"lo1":-89.0895,"lo2":-89.0444,"dy":0.0017,"dx":0.0017,"nx":28,"ny":28,"refTime":"2025-04-24T09:00:00:Z","depth":0,"parameterNumber":2,"parameterNumberName":"U-component_of_WINDS"},"data":[0,0,0,0,0,0,0,0,0,0,0,0,0,0,0,0,0,0,0,0,0,0,0,0,0,0,0,0,0,0,0,0,0,0,0,0,0,0,0,0,0,0,0,0,0,0,0,0,0,0,0,0,0,0,0,0,0,0,-3.4171,-3.4171,0,-3.413,-3.4129,-3.4129,-3.4061,-3.4059,-3.4058,-3.4057,-3.4014,-3.4014,-3.4014,0,0,0,0,0,0,0,0,0,0,0,0,0,-3.4191,-3.4191,-3.4171,-3.4171,-3.417,-3.413,-3.4129,-3.4129,-3.4061,-3.4059,-3.4058,-3.4056,-3.4014,-3.4014,-3.4014,0,0,0,0,0,0,0,0,0,0,0,0,0,-3.4169,-3.4191,-3.4171,-3.4131,-3.4127,-3.413,-3.4129,-3.4129,-3.4061,-3.4059,-3.4057,-3.4056,-3.4014,-3.4014,-3.4014,-3.4051,0,0,-3.4014,-3.4014,0,0,0,0,0,0,0,0,-3.4171,-3.4169,-3.4138,-3.4134,-3.413,-3.4098,-3.412,-3.4103,-3.4062,-3.4086,-3.4057,-3.4055,-3.4043,-3.4041,-3.4037,-3.4049,-3.4047,-3.4014,-3.4014,-3.4014,-3.4014,0,0,0,0,0,0,0,-3.4172,-3.417,-3.4155,-3.4137,-3.4133,-3.4116,-3.411,-3.4117,-3.4076,-3.4084,-3.4079,-3.4075,-3.4041,-3.4037,-3.4036,-3.4047,-3.4014,-3.4014,-3.4014,-3.4014,-3.4087,-3.4089,0,0,0,0,0,0,-3.418,-3.4172,-3.4156,-3.4153,-3.4146,-3.4117,-3.4111,-3.411,-3.4076,-3.4068,-3.4077,-3.4072,-3.4038,-3.4036,-3.4034,-3.4074,-3.4014,-3.4014,-3.4014,-3.4085,-3.4088,-3.409,0,0,0,0,0,0,-3.418,-3.4179,-3.4158,-3.4161,-3.4157,-3.4118,-3.4118,-3.4111,-3.4107,-3.407,-3.4062,-3.4081,-3.4037,-3.4034,-3.4047,-3.4072,-3.4014,-3.4014,-3.4083,-3.4086,-3.4089,-3.4157,0,0,0,0,0,0,-3.4181,-3.418,-3.4193,-3.4162,-3.4157,-3.4172,-3.412,-3.4111,-3.4107,-3.4101,-3.4072,-3.4065,-3.4035,-3.4048,-3.4047,-3.4071,-3.4014,-3.4081,-3.4085,-3.4088,-3.4153,-3.4162,-3.417,0,0,0,0,0,-3.4182,-3.4214,-3.4195,-3.4193,-3.4174,-3.4174,-3.4171,-3.4136,-3.411,-3.4123,-3.41,-3.4066,-3.407,-3.405,-3.4049,-3.4073,-3.4079,-3.4083,-3.4088,-3.4149,-3.416,-3.417,0,0,0,0,0,0,-3.4249,-3.4209,-3.4187,-3.421,-3.4196,-3.4162,-3.4178,-3.415,-3.4142,-3.4136,-3.4093,-3.4087,-3.4106,-3.4091,-3.4069,-3.4107,-3.4069,-3.4074,-3.4116,-3.4127,-3.4136,-3.4138,-3.4014,0,0,0,0,0,-3.4266,-3.427,-3.4235,-3.4259,-3.4253,-3.4217,-3.4216,-3.419,-3.4174,-3.4167,-3.4144,-3.413,-3.4127,-3.4127,-3.4123,-3.4151,-3.4143,-3.4167,-3.4176,-3.4184,-3.4187,-3.42,-3.421,-3.4104,-3.4104,-3.4104,0,0,-3.4302,-3.4281,-3.4286,-3.4271,-3.4257,-3.4262,-3.4212,-3.4219,-3.4221,-3.4168,-3.4179,-3.4163,-3.4143,-3.4164,-3.4172,-3.4152,-3.4215,-3.4189,-3.4196,-3.4195,-3.4206,-3.4216,-3.4225,-3.4107,-3.4107,-3.4106,0,0,-3.4369,-3.4354,-3.4371,-3.4359,-3.4339,-3.4315,-3.4319,-3.4291,-3.4277,-3.4288,-3.4248,-3.4251,-3.4249,-3.4236,-3.4229,-3.4294,-3.4262,-3.4294,-3.4339,-3.4352,-3.4361,-3.4368,-3.4389,-3.4397,-3.4298,-3.4298,-3.4298,0,-3.4415,-3.442,-3.4384,-3.4393,-3.4388,-3.4341,-3.4358,-3.4348,-3.4327,-3.4325,-3.4303,-3.4299,-3.4282,-3.4299,-3.4315,-3.4312,-3.4315,-3.4295,-3.4363,-3.4369,-3.4375,-3.4395,-3.4403,-3.4302,-3.4301,-3.4301,-3.4301,0,-3.4478,-3.4482,-3.4499,-3.448,-3.4477,-3.4491,-3.4456,-3.4458,-3.4433,-3.4412,-3.4424,-3.4403,-3.4394,-3.4396,-3.4372,-3.441,-3.4398,-3.4371,-3.4331,-3.439,-3.4408,-3.4415,-3.4307,-3.4306,-3.4305,-3.4304,0,0,-3.4583,-3.4546,-3.4552,-3.4543,-3.4518,-3.4521,-3.4532,-3.4524,-3.4525,-3.4514,-3.4521,-3.4521,-3.4495,-3.4488,-3.4462,-3.4475,-3.4525,-3.4445,-3.4444,-3.4459,-3.4564,-3.4584,-3.4593,-3.4505,-3.4507,-3.4508,-3.4565,0,-3.4643,-3.466,-3.4628,-3.4652,-3.4655,-3.4612,-3.4622,-3.4608,-3.4589,-3.4588,-3.4567,-3.4567,-3.4534,-3.4529,-3.454,-3.4517,-3.4545,-3.4513,-3.4511,-3.4511,-3.4514,-3.4602,-3.4623,-3.4678,-3.4572,-3.4573,-3.4574,0,-3.4714,-3.4706,-3.4731,-3.4705,-3.4705,-3.4715,-3.4704,-3.4705,-3.4688,-3.4674,-3.4666,-3.4637,-3.4646,-3.461,-3.4621,-3.46,-3.4598,-3.4587,-3.4588,-3.4584,-3.4544,-3.4599,-3.4695,-3.4702,-3.4585,-3.4584,-3.4583,0,-3.4786,-3.4782,-3.4796,-3.479,-3.4761,-3.4768,-3.4756,-3.4738,-3.4735,-3.4726,-3.4724,-3.4717,-3.4712,-3.4707,-3.4676,-3.4653,-3.4691,-3.4652,-3.4678,-3.4678,-3.4685,-3.4685,-3.478,-3.4688,-3.4688,-3.4688,-3.4688,0,-3.4855,-3.4871,-3.4828,-3.4836,-3.4854,-3.4818,-3.4836,-3.4819,-3.4804,-3.4808,-3.4771,-3.4776,-3.4736,-3.4736,-3.4712,-3.4725,-3.4723,-3.4711,-3.4704,-3.4713,-3.4714,-3.4709,-3.4703,-3.469,-3.469,-3.4689,-3.4689,0,-3.4937,-3.4909,-3.4921,-3.4893,-3.4886,-3.49,-3.4875,-3.4882,-3.4861,-3.4867,-3.4866,-3.4834,-3.4832,-3.4802,-3.4794,-3.4778,-3.4799,-3.4786,-3.4805,-3.48,-3.4826,-3.4823,-3.4919,-3.4929,-3.4833,-3.4834,-3.4835,0,-3.4982,-3.4993,-3.4967,-3.4967,-3.4957,-3.4958,-3.4955,-3.4921,-3.4919,-3.4902,-3.491,-3.4906,-3.49,-3.49,-3.4876,-3.4869,-3.4855,-3.4889,-3.4853,-3.4862,-3.4853,-3.4852,-3.4852,-3.4895,-3.4897,-3.4898,-3.4898,0,-3.5064,-3.5049,-3.5046,-3.5039,-3.5037,-3.5029,-3.5019,-3.5022,-3.4984,-3.4984,-3.4983,-3.4979,-3.4971,-3.4967,-3.4956,-3.4943,-3.4914,-3.491,-3.4915,-3.4923,-3.4933,-3.4926,-3.4823,-3.4908,-3.4907,-3.4906,-3.4906,-3.4905,-3.5127,-3.5135,-3.5117,-3.5116,-3.5105,-3.5097,-3.5101,-3.5082,-3.508,-3.5071,-3.5051,-3.5053,-3.5036,-3.5019,-3.5009,-3.5009,-3.4992,-3.5,-3.5001,-3.5003,-3.5007,-3.4935,-3.5007,-3.5007,-3.5007,-3.5007,-3.5006,0,-3.5205,-3.5192,-3.5191,-3.5178,-3.5177,-3.5152,-3.514,-3.514,-3.5142,-3.5129,-3.5125,-3.5123,-3.5119,-3.5095,-3.5088,-3.5093,-3.5079,-3.5092,-3.509,-3.5087,-3.5024,-3.502,-3.5103,-3.5103,-3.5103,-3.5103,-3.5103,-3.5103,-3.5246,-3.5258,-3.5242,-3.5248,-3.5235,-3.5236,-3.5231,-3.5223,-3.5213,-3.5213,-3.5209,-3.5194,-3.5176,-3.5168,-3.5163,-3.5156,-3.5155,-3.5172,-3.516,-3.5101,-3.5092,-3.5083,-3.5078,-3.5172,-3.5172,-3.5222,-3.5223,-3.5223]},{"header":{"parameterUnit":"m.s-1","parameterCategory":1,"la1":30.2991,"la2":30.254,"lo1":-89.0895,"lo2":-89.0444,"dy":0.0017,"dx":0.0017,"nx":28,"ny":28,"refTime":"2025-04-24T09:00:00:Z","depth":0,"parameterNumber":3,"parameterNumberName":"V-component_of_WINDS"},"data":[0,0,0,0,0,0,0,0,0,0,0,0,0,0,0,0,0,0,0,0,0,0,0,0,0,0,0,0,0,0,0,0,0,0,0,0,0,0,0,0,0,0,0,0,0,0,0,0,0,0,0,0,0,0,0,0,0,0,3.6716,3.6717,0,3.6736,3.6737,3.6737,3.672,3.672,3.6719,3.6718,3.6736,3.6737,3.6738,0,0,0,0,0,0,0,0,0,0,0,0,0,3.6662,3.6663,3.6716,3.6717,3.6717,3.6736,3.6737,3.6737,3.672,3.6719,3.6719,3.6718,3.6736,3.6737,3.6738,0,0,0,0,0,0,0,0,0,0,0,0,0,3.6684,3.6663,3.6716,3.6711,3.6711,3.6736,3.6737,3.6737,3.6721,3.6719,3.6718,3.6717,3.6735,3.6737,3.6738,3.677,0,0,3.6744,3.6744,0,0,0,0,0,0,0,0,3.6683,3.6686,3.6712,3.6711,3.6711,3.6725,3.6724,3.6748,3.6721,3.6717,3.6718,3.6717,3.6733,3.6735,3.6741,3.677,3.6771,3.6744,3.6745,3.6746,3.6746,0,0,0,0,0,0,0,3.6681,3.6685,3.6724,3.6712,3.6712,3.6707,3.6709,3.6728,3.673,3.6717,3.6716,3.6719,3.6733,3.6739,3.6741,3.6771,3.6744,3.6745,3.6746,3.6747,3.6828,3.6829,0,0,0,0,0,0,3.668,3.6684,3.6724,3.6725,3.6694,3.6709,3.6711,3.6721,3.673,3.673,3.6719,3.6718,3.6737,3.6739,3.6742,3.6779,3.6745,3.6747,3.6748,3.6827,3.6829,3.683,0,0,0,0,0,0,3.6679,3.6684,3.6723,3.6704,3.6709,3.6711,3.6723,3.6722,3.6729,3.6732,3.6732,3.6726,3.6736,3.6739,3.6763,3.6779,3.6748,3.6749,3.6826,3.6828,3.6829,3.6854,0,0,0,0,0,0,3.6678,3.6684,3.6696,3.6704,3.671,3.6745,3.6724,3.6724,3.6732,3.673,3.6738,3.6738,3.6735,3.6761,3.6765,3.6781,3.6751,3.6824,3.6827,3.6829,3.6852,3.6856,3.686,0,0,0,0,0,3.6676,3.6701,3.6697,3.6702,3.6725,3.6746,3.6749,3.6746,3.6734,3.6746,3.6748,3.6738,3.6777,3.6763,3.6768,3.6785,3.6823,3.6826,3.6829,3.685,3.6855,3.686,0,0,0,0,0,0,3.6693,3.6702,3.6697,3.6726,3.6736,3.6743,3.6758,3.6752,3.6763,3.6761,3.6756,3.6758,3.6783,3.6786,3.6771,3.6816,3.6798,3.6802,3.6813,3.6818,3.6822,3.6821,3.6752,0,0,0,0,0,3.6701,3.6718,3.6724,3.6749,3.6754,3.6756,3.6764,3.6761,3.677,3.6774,3.6777,3.6786,3.68,3.6809,3.6822,3.6852,3.6854,3.6866,3.687,3.6874,3.6877,3.6894,3.6899,3.6838,3.6838,3.6838,0,0,3.6716,3.6723,3.6734,3.6753,3.676,3.6777,3.6759,3.6777,3.6789,3.6776,3.6799,3.6802,3.6811,3.6839,3.6851,3.6842,3.6894,3.6877,3.688,3.6881,3.6897,3.6903,3.6908,3.684,3.684,3.684,0,0,3.6753,3.676,3.6782,3.6789,3.68,3.6801,3.6807,3.6815,3.6817,3.6841,3.6831,3.6845,3.687,3.6877,3.6883,3.6924,3.6915,3.6928,3.695,3.6967,3.6971,3.6976,3.699,3.6996,3.6931,3.6931,3.6931,0,3.677,3.6796,3.6794,3.6813,3.6822,3.6812,3.6834,3.6841,3.6856,3.6862,3.6852,3.6883,3.6888,3.6917,3.6927,3.6933,3.6939,3.6927,3.6971,3.6975,3.6979,3.6993,3.6999,3.6933,3.6933,3.6933,3.6932,0,3.6817,3.6835,3.6852,3.6867,3.6878,3.6898,3.6899,3.691,3.6906,3.6908,3.6932,3.6938,3.6953,3.6959,3.6955,3.6988,3.6982,3.6972,3.6954,3.6987,3.7,3.7005,3.6935,3.6934,3.6934,3.6934,0,0,3.6864,3.688,3.6886,3.6893,3.6905,3.6918,3.6939,3.6954,3.6964,3.6974,3.6991,3.7012,3.7003,3.7011,3.7008,3.7022,3.7054,3.701,3.701,3.7018,3.7091,3.7099,3.7105,3.7049,3.705,3.705,3.709,0,3.6902,3.6939,3.6937,3.6971,3.6988,3.6979,3.6997,3.7006,3.7008,3.7022,3.7024,3.704,3.7026,3.7031,3.7045,3.7047,3.7069,3.7044,3.7064,3.7065,3.7062,3.7112,3.712,3.7157,3.7095,3.7096,3.7097,0,3.695,3.6964,3.7,3.701,3.7017,3.7033,3.7048,3.7061,3.7071,3.7072,3.7081,3.7076,3.7096,3.7078,3.7106,3.7089,3.7097,3.71,3.7101,3.7103,3.7083,3.7115,3.7169,3.7174,3.7104,3.7104,3.7103,0,3.6982,3.7009,3.7034,3.7041,3.7053,3.7065,3.707,3.7079,3.7089,3.7101,3.7107,3.7121,3.7129,3.714,3.7139,3.7126,3.7167,3.7148,3.7167,3.7168,3.7176,3.7176,3.7232,3.7181,3.7181,3.7181,3.7181,0,3.7024,3.7046,3.7049,3.7064,3.7089,3.7088,3.7112,3.7116,3.7124,3.714,3.7133,3.7148,3.7145,3.7159,3.7158,3.7181,3.7185,3.7186,3.7185,3.7186,3.7186,3.7191,3.7189,3.7183,3.7182,3.7182,3.7182,0,3.7063,3.7066,3.7093,3.7103,3.7106,3.7124,3.7133,3.7147,3.7149,3.7169,3.7174,3.7177,3.7194,3.7193,3.7212,3.7211,3.724,3.7236,3.7237,3.7236,3.7256,3.7254,3.7317,3.7326,3.7269,3.727,3.727,0,3.709,3.7108,3.712,3.7131,3.7138,3.7155,3.7165,3.7164,3.7175,3.7188,3.7201,3.7217,3.723,3.7258,3.7261,3.7275,3.7272,3.7293,3.7274,3.7275,3.7273,3.7272,3.7274,3.7297,3.7298,3.7298,3.7299,0,3.7138,3.7138,3.7154,3.7171,3.7183,3.7196,3.7207,3.7216,3.7217,3.7229,3.7247,3.7257,3.7277,3.7294,3.7308,3.7312,3.7306,3.7305,3.731,3.7312,3.7312,3.7312,3.7248,3.7303,3.7303,3.7302,3.7302,3.7302,3.7172,3.7187,3.7199,3.7217,3.7226,3.7237,3.7251,3.7256,3.7271,3.7288,3.7286,3.7306,3.7316,3.7334,3.7341,3.7356,3.7348,3.7356,3.7357,3.7359,3.7362,3.7309,3.7358,3.7358,3.7358,3.7358,3.7358,0,3.7219,3.7227,3.7243,3.7261,3.7275,3.7268,3.7281,3.7293,3.7311,3.7321,3.7335,3.7355,3.7371,3.7376,3.7392,3.7403,3.74,3.7407,3.7406,3.7407,3.7367,3.7362,3.7409,3.7409,3.7409,3.7409,3.7409,3.7409,3.7246,3.7272,3.7274,3.7304,3.7311,3.7332,3.7339,3.735,3.7358,3.7382,3.7396,3.7399,3.7407,3.7423,3.7437,3.7438,3.7444,3.7453,3.7452,3.7415,3.741,3.7405,3.74,3.7454,3.7454,3.7491,3.7491,3.7491]}]]